Stations météo

Publicité
Düsseldorf, Allemagne (10400): Température de l'air & dewpoint: 12.01.2018 06:00:00 - 18.01.2018 06:00:00 (CET)Düsseldorf, Allemagne (10400): Température de l'air 5cm & Température de l'air -5cm: 12.01.2018 06:00:00 - 18.01.2018 06:00:00 (CET)Düsseldorf, Allemagne (10400): Température de l'air -20cm & Température de l'air -100cm: 12.01.2018 06:00:00 - 18.01.2018 06:00:00 (CET)Düsseldorf, Allemagne (10400): Vitesse du vent & gusts: 12.01.2018 06:00:00 - 18.01.2018 06:00:00 (CET)Düsseldorf, Allemagne (10400): Direction du vent: 12.01.2018 06:00:00 - 18.01.2018 06:00:00 (CET)Düsseldorf, Allemagne (10400): reduced air pressure: 12.01.2018 06:00:00 - 18.01.2018 06:00:00 (CET)Düsseldorf, Allemagne (10400): visibility: 12.01.2018 06:00:00 - 18.01.2018 06:00:00 (CET)Düsseldorf, Allemagne (10400): Ensoleillement: 12.01.2018 06:00:00 - 18.01.2018 06:00:00 (CET)Düsseldorf, Allemagne (10400): Quantités de précipitations: 12.01.2018 06:00:00 - 18.01.2018 06:00:00 (CET)
Date & Time tt [°C] td [°C] tt 5cm [°C] tt -5cm [°C] tt -20cm [°C] tt -100cm [°C] ff [km/h] ff [knt] fx [km/h] fx [knt] dd ppp [hPa] vv [km] sd [min] rr [mm]
18.01.2018 06:00:00 3,5 2,3 3,0 2,7 2,8 6,0 39 21 55 30 S 995,6 4,0 0 2,2
18.01.2018 05:00:00 4,2 2,3 3,3 2,7 2,7 6,0 28 15 47 25 S 998,9 20 0 0,7
18.01.2018 04:00:00 4,7 1,7 3,6 2,3 2,6 6,0 32 17 44 24 SSW 1002,3 25 0 0,0
18.01.2018 03:00:00 4,5 1,0 3,8 2,0 2,6 6,0 27 14 35 19 SSW 1004,1 30 0 0,0
18.01.2018 02:00:00 4,0 0,5 3,2 1,8 2,6 6,0 25 13 38 20 SW 1005,9 30 0 0,0
18.01.2018 01:00:00 3,2 0,1 2,3 1,6 2,6 6,0 21 12 29 15 SW 1006,8 30 0 0,0
18.01.2018 00:00:00 3,2 0,1 2,2 1,7 2,7 6,0 24 13 32 17 SW 1007,4 35 0 0,0
17.01.2018 23:00:00 4,0 0,2 2,8 1,7 2,7 6,0 22 12 34 18 SW 1007,9 35 0 0,0
17.01.2018 22:00:00 3,3 -0,2 2,3 1,6 2,7 6,1 20 11 32 17 SW 1007,6 40 0 0,0
17.01.2018 21:00:00 4,0 -0,5 2,4 1,5 2,9 6,1 24 13 38 20 WSW 1007,4 40 0 0,0
17.01.2018 20:00:00 2,9 -0,5 1,0 1,7 3,0 6,1 20 11 37 20 SW 1007,2 30 0 0,0
17.01.2018 19:00:00 4,2 0,1 2,4 2,1 3,1 6,1 28 15 40 21 WSW 1007,1 30 0 0,0
17.01.2018 18:00:00 4,1 -0,1 2,0 2,3 3,1 6,1 24 13 38 20 WSW 1006,4 30 0 0,0
17.01.2018 17:00:00 3,8 0,7 2,4 2,6 3,1 6,1 25 13 42 23 W 1005,6 30 0 0,0
17.01.2018 16:00:00 3,3 1,2 2,7 2,8 3,1 6,1 33 18 66 35 W 1004,2 30 0 1,6
17.01.2018 15:00:00 3,2 1,1 2,6 3,5 2,9 6,1 44 24 66 36 WSW 1003,0 15 5 0,1
17.01.2018 14:00:00 4,0 1,0 4,8 3,1 2,7 6,1 30 16 53 29 WSW 1002,2 30 5 0,0
17.01.2018 13:00:00 3,0 0,5 2,5 2,6 2,6 6,1 37 20 52 28 WSW 1001,8 25 0 0,1
17.01.2018 12:00:00 2,5 0,0 2,1 2,2 2,4 6,1 29 16 51 28 WSW 1001,3 22 10 0,0
17.01.2018 11:00:00 2,5 -0,6 2,2 1,5 2,3 6,1 31 17 53 28 WSW 1000,5 30 9 0,0
17.01.2018 10:00:00 2,0 -1,0 1,0 1,0 2,4 6,1 30 16 48 26 WSW 999,7 30 0 0,0
17.01.2018 09:00:00 1,7 -0,7 0,5 0,9 2,4 6,1 28 15 42 23 WSW 998,4 30 0 0,2
17.01.2018 08:00:00 1,9 -0,7 0,8 0,9 2,5 6,1 28 15 39 21 WSW 997,2 27 0 0,0
17.01.2018 07:00:00 1,5 -0,3 0,7 0,9 2,6 6,1 25 13 41 22 WSW 996,0 35 0 0,1
17.01.2018 06:00:00 2,2 -0,3 1,1 0,9 2,7 6,1 27 15 43 23 WSW 994,6 8 0 0,0
17.01.2018 05:00:00 2,5 -0,2 1,4 0,9 2,8 6,1 16 9 50 27 WSW 994,1 20 0 0,1
17.01.2018 04:00:00 2,2 0,3 1,3 1,1 2,9 6,1 29 16 56 30 W 993,7 12 0 3,5
17.01.2018 03:00:00 3,7 1,1 2,8 2,1 3,0 6,1 36 19 49 27 SW 992,7 20 0 0,1
17.01.2018 02:00:00 3,3 1,1 2,5 1,6 3,0 6,1 20 11 35 19 SW 992,6 30 0 0,0
17.01.2018 01:00:00 2,9 0,4 1,3 1,6 3,1 6,1 16 9 32 17 SW 993,0 30 0 0,0
17.01.2018 00:00:00 2,7 0,4 1,3 1,3 3,2 6,1 21 11 31 17 SSW 993,7 30 0 0,0
16.01.2018 23:00:00 2,2 0,0 0,6 1,2 3,4 6,1 19 10 25 13 SSW 994,1 30 0 0,0
16.01.2018 22:00:00 1,9 -0,2 0,6 1,4 3,6 6,1 17 9 34 18 SSW 994,6 30 0 0,0
16.01.2018 21:00:00 1,7 -0,3 0,1 1,7 3,9 6,1 20 11 26 14 SSW 994,8 30 0 0,0
16.01.2018 20:00:00 1,8 -0,2 0,4 2,2 4,1 6,1 16 9 27 15 SW 995,0 45 0 0,0
16.01.2018 19:00:00 1,4 -0,4 0,3 2,8 4,3 6,1 16 9 38 20 SW 995,1 45 0 0,0
16.01.2018 18:00:00 2,7 0,3 1,4 3,3 4,5 6,1 26 14 57 31 W 995,4 35 0 0,5
16.01.2018 17:00:00 3,7 -0,6 2,2 3,8 4,6 6,1 32 17 67 36 WSW 995,4 25 0 0,0
16.01.2018 16:00:00 4,3 0,0 3,2 4,4 4,6 6,1 40 22 54 29 WSW 994,7 25 10 0,0
16.01.2018 15:00:00 4,0 1,5 3,6 4,9 4,6 6,2 16 8 54 29 WSW 994,4 40 25 0,6
16.01.2018 14:00:00 4,3 2,3 5,1 4,3 4,6 6,2 18 10 44 24 SW 994,3 22 12 0,1
16.01.2018 13:00:00 3,9 2,0 4,5 4,2 4,6 6,2 18 10 50 27 W 994,5 15 8 0,7
16.01.2018 12:00:00 3,9 1,5 3,3 4,2 4,6 6,2 24 13 65 35 W 993,7 40 0 1,7
16.01.2018 11:00:00 5,4 1,8 4,1 4,7 4,6 6,2 45 24 64 35 W 992,8 20 2 0,3
16.01.2018 10:00:00 6,8 3,3 6,0 4,7 4,5 6,2 37 20 51 27 SW 991,7 40 0 0,0
16.01.2018 09:00:00 6,7 3,5 5,4 4,5 4,5 6,2 25 13 39 21 WSW 991,8 40 0 0,1
16.01.2018 08:00:00 6,4 3,1 5,5 4,3 4,5 6,2 26 14 40 22 SW 991,7 50 0 0,0
16.01.2018 07:00:00 6,3 3,3 5,1 4,1 4,6 6,2 28 15 44 24 SW 991,8 50 0 0,0
16.01.2018 06:00:00 6,2 3,2 4,5 4,4 4,6 6,2 29 16 46 25 SW 992,1 50 0 0,3
16.01.2018 05:00:00 6,4 3,9 5,2 4,7 4,6 6,2 32 17 57 31 SW 992,8 20 0 0,0
16.01.2018 04:00:00 6,4 3,7 5,4 4,6 4,6 6,2 24 13 34 18 SW 993,3 50 0 0,0
16.01.2018 03:00:00 6,3 3,8 5,1 4,7 4,6 6,2 22 12 40 22 WSW 993,8 50 0 0,0
16.01.2018 02:00:00 6,6 3,9 5,4 4,9 4,6 6,2 26 14 42 23 WSW 994,4 45 0 0,0
16.01.2018 01:00:00 7,0 5,0 6,1 5,0 4,6 6,2 27 15 41 22 WSW 993,9 45 0 0,0
16.01.2018 00:00:00 6,9 5,5 5,9 5,1 4,5 6,3 23 13 37 20 WSW 993,0 30 0 0,9
15.01.2018 23:00:00 6,8 5,2 6,1 4,9 4,4 6,3 29 16 42 23 SSW 993,0 40 0 0,5
15.01.2018 22:00:00 6,8 4,5 5,7 4,7 4,3 6,3 36 20 51 27 SSW 993,0 20 0 0,0
15.01.2018 21:00:00 6,5 2,8 5,3 4,5 4,2 6,3 23 12 44 24 S 993,7 45 0 0,2
15.01.2018 20:00:00 6,4 3,2 5,2 4,5 4,2 6,3 34 19 52 28 S 994,4 30 0 1,4
15.01.2018 19:00:00 5,9 4,4 5,1 4,5 4,1 6,3 36 20 58 31 S 995,8 8 0 3,2
15.01.2018 18:00:00 6,1 4,0 5,1 4,4 4,0 6,3 38 20 53 28 S 997,6 9 0 0,7
15.01.2018 17:00:00 6,1 3,8 5,2 4,4 3,9 6,3 33 18 52 28 SSE 998,9 15 0 0,3
15.01.2018 16:00:00 6,2 3,7 5,3 4,4 3,7 6,3 37 20 51 27 S 1001,2 12 0 0,2
15.01.2018 15:00:00 6,7 3,3 5,4 4,2 3,6 6,4 28 15 48 26 S 1003,2 15 0 0,3
15.01.2018 14:00:00 6,0 3,0 5,4 4,0 3,4 6,4 32 18 53 28 S 1004,7 17 0 0,0
15.01.2018 13:00:00 6,3 2,4 5,7 3,9 3,2 6,4 32 18 44 24 S 1007,0 20 0 0,0
15.01.2018 12:00:00 6,0 1,8 5,8 3,6 3,0 6,4 27 14 48 26 S 1009,0 25 11 0,0
15.01.2018 11:00:00 5,1 0,9 4,9 2,7 2,8 6,4 24 13 39 21 S 1010,6 20 0 0,0
15.01.2018 10:00:00 3,9 0,2 3,5 2,1 2,8 6,4 27 15 40 21 S 1011,5 20 0 0,0
15.01.2018 09:00:00 3,4 -0,4 2,7 1,8 2,8 6,4 27 15 39 21 SSE 1012,2 22 0 0,0
15.01.2018 08:00:00 3,2 -0,8 2,4 2,0 2,8 6,4 25 13 39 21 SSE 1012,8 22 0 0,0
15.01.2018 07:00:00 4,0 -0,5 3,6 2,1 2,7 6,4 21 11 35 19 SSE 1013,8 25 0 0,0
15.01.2018 06:00:00 3,5 -0,9 3,2 1,8 2,6 6,4 22 12 39 21 SSE 1014,6 22 0 0,0
15.01.2018 05:00:00 3,2 -1,3 2,8 1,5 2,6 6,4 23 13 37 20 SSE 1015,4 22 0 0,0
15.01.2018 04:00:00 2,8 -1,7 2,4 1,2 2,6 6,4 25 13 41 22 SSE 1016,4 23 0 0,0
15.01.2018 03:00:00 2,2 -2,1 1,1 0,8 2,7 6,4 26 14 41 22 SSE 1017,1 23 0 0,0
15.01.2018 02:00:00 2,4 -2,1 1,5 0,9 2,7 6,4 26 14 44 24 SSE 1017,8 23 0 0,0
15.01.2018 01:00:00 2,1 -2,2 1,2 0,8 2,9 6,4 27 14 40 22 SSE 1018,7 24 0 0,0
15.01.2018 00:00:00 2,1 -2,2 0,9 0,8 3,0 6,4 29 15 41 22 SSE 1019,1 25 0 0,0
14.01.2018 23:00:00 2,2 -2,1 1,0 1,0 3,2 6,5 26 14 41 22 SSE 1019,7 27 0 0,0
14.01.2018 22:00:00 2,3 -2,0 0,9 1,1 3,4 6,5 25 13 36 20 SSE 1019,9 30 0 0,0
14.01.2018 21:00:00 2,7 -1,9 1,3 1,3 3,6 6,5 21 11 35 19 SSE 1020,3 35 0 0,0
14.01.2018 20:00:00 2,6 -2,2 1,3 1,6 3,8 6,5 22 12 34 18 SSE 1020,3 40 0 0,0
14.01.2018 19:00:00 2,7 -2,1 1,2 2,0 4,1 6,5 21 12 34 18 SSE 1020,5 30 0 0,0
14.01.2018 18:00:00 3,2 -1,9 1,8 2,5 4,4 6,5 21 11 33 18 SSE 1020,8 30 0 0,0
14.01.2018 17:00:00 3,6 -1,9 2,2 3,4 4,5 6,5 15 8 35 19 SSE 1020,8 30 0 0,0
14.01.2018 16:00:00 4,1 -1,7 3,6 4,6 4,6 6,5 25 14 41 22 SSE 1020,8 40 44 0,0
14.01.2018 15:00:00 4,9 -1,3 5,3 5,2 4,5 6,5 22 12 38 20 SE 1020,7 40 60 0,0
14.01.2018 14:00:00 4,9 -1,5 5,4 5,4 4,2 6,5 29 16 43 23 SSE 1021,0 35 60 0,0
14.01.2018 13:00:00 5,2 -1,1 5,6 4,9 4,0 6,5 23 12 38 21 SSE 1021,3 40 59 0,0
14.01.2018 12:00:00 4,4 -1,4 4,8 4,2 3,9 6,5 22 12 35 19 SSE 1021,6 30 60 0,0
14.01.2018 11:00:00 3,8 -1,5 3,9 3,3 3,8 6,5 18 10 33 18 SE 1022,0 35 52 0,0
14.01.2018 10:00:00 3,3 -1,4 2,8 2,8 3,9 6,5 16 9 26 14 ESE 1022,0 10 0 0,0
14.01.2018 09:00:00 3,5 -1,6 2,8 2,8 3,9 6,5 18 10 29 16 SE 1021,8 30 0 0,0
14.01.2018 08:00:00 3,5 -1,5 2,9 2,9 4,0 6,5 18 10 29 16 ESE 1021,5 25 0 0,0
14.01.2018 07:00:00 3,7 -1,0 3,0 3,0 4,1 6,5 13 7 24 13 ESE 1021,5 30 0 0,0
14.01.2018 06:00:00 3,9 -1,3 3,2 3,1 4,1 6,5 18 10 28 15 ESE 1021,5 30 0 0,0
14.01.2018 05:00:00 4,2 -1,2 3,6 3,2 4,1 6,5 18 10 26 14 ESE 1021,8 30 0 0,0
14.01.2018 04:00:00 4,4 -0,8 3,8 3,3 4,2 6,5 21 12 30 16 E 1021,9 30 0 0,0
14.01.2018 03:00:00 4,6 -0,6 4,0 3,4 4,2 6,5 16 9 29 16 ESE 1022,1 30 0 0,0
14.01.2018 02:00:00 4,8 -0,5 4,1 3,4 4,2 6,5 16 9 26 14 ESE 1022,1 30 0 0,0
14.01.2018 01:00:00 5,0 -0,4 4,3 3,3 4,2 6,5 18 10 33 18 ESE 1022,5 30 0 0,0
14.01.2018 00:00:00 4,9 -0,3 4,0 3,3 4,2 6,5 15 8 29 16 ESE 1022,8 30 0 0,0
13.01.2018 23:00:00 4,7 0,0 3,8 3,1 4,2 6,5 12 7 18 10 ESE 1023,2 25 0 0,0
13.01.2018 22:00:00 3,9 -0,4 3,0 2,8 4,3 6,5 8 5 27 15 ENE 1023,4 25 0 0,0
13.01.2018 21:00:00 3,0 -0,9 1,7 2,5 4,6 6,5 11 6 18 10 ENE 1023,6 30 0 0,0
13.01.2018 20:00:00 2,4 -1,3 -0,1 2,6 4,9 6,5 14 7 16 9 E 1023,7 27 0 0,0
13.01.2018 19:00:00 1,2 -2,1 -1,2 3,3 5,2 6,5 14 8 20 11 E 1023,7 30 0 0,0
13.01.2018 18:00:00 4,3 -0,7 2,0 4,2 5,4 6,5 13 7 24 13 E 1023,9 30 0 0,0
13.01.2018 17:00:00 6,0 0,2 5,0 5,2 5,4 6,5 14 8 25 14 ESE 1024,0 30 0 0,0
13.01.2018 16:00:00 6,5 0,1 5,8 5,9 5,4 6,5 18 10 29 16 SE 1024,0 35 27 0,0
13.01.2018 15:00:00 6,9 0,5 7,0 5,7 5,3 6,5 19 10 33 18 SSE 1024,2 35 6 0,0
13.01.2018 14:00:00 7,1 0,7 8,3 6,0 5,1 6,5 18 10 38 20 SE 1025,0 35 16 0,0
13.01.2018 13:00:00 6,3 0,7 6,2 5,5 4,9 6,5 29 15 41 22 SE 1025,6 35 10 0,0
13.01.2018 12:00:00 5,8 1,0 5,8 4,9 4,8 6,5 26 14 41 22 SSE 1026,1 35 0 0,0
13.01.2018 11:00:00 5,9 2,0 5,5 4,6 4,8 6,5 24 13 35 19 SSE 1026,1 25 0 0,0
13.01.2018 10:00:00 6,2 2,5 5,6 4,3 4,7 6,5 16 9 29 16 SE 1025,9 25 0 0,0
13.01.2018 09:00:00 5,8 3,0 4,6 4,0 4,8 6,5 14 8 21 11 SE 1025,6 15 0 0,0
13.01.2018 08:00:00 3,2 2,5 2,9 3,9 4,8 6,5 8 4 11 6 E 1025,5 20 0 0,0
13.01.2018 07:00:00 4,0 3,3 3,4 4,0 4,9 6,5 4 2 11 6 NNE 1025,6 12 0 0,0
13.01.2018 06:00:00 3,8 3,0 3,1 4,1 4,9 6,5 3 2 9 5 ENE 1025,7 9 0 0,0
13.01.2018 05:00:00 3,3 2,5 2,3 4,1 5,0 6,5 8 4 9 5 ENE 1026,0 4,2 0 0,0
13.01.2018 04:00:00 3,9 3,3 3,0 4,3 5,1 6,5 4 2 5 3 NNE 1026,3 3,4 0 0,0
13.01.2018 03:00:00 4,6 3,8 3,5 4,4 5,2 6,5 4 2 9 5 NE 1026,6 3,4 0 0,0
13.01.2018 02:00:00 4,7 3,7 3,7 4,7 5,3 6,5 5 3 5 3 NE 1026,8 3,8 0 0,0
13.01.2018 01:00:00 5,0 3,8 4,2 5,0 5,3 6,5 4 2 5 3 NE 1027,1 3,4 0 0,0
13.01.2018 00:00:00 5,0 3,9 4,9 5,0 5,3 6,5 2 1 4 2 W 1027,4 3,2 0 0,0
12.01.2018 23:00:00 4,9 3,8 4,8 5,0 5,3 6,5 4 2 5 3 NNE 1027,4 3,2 0 0,0
12.01.2018 22:00:00 5,0 3,9 4,8 5,0 5,3 6,5 2 1 5 3 NNW 1027,5 3,0 0 0,0
12.01.2018 21:00:00 4,9 3,7 4,8 5,1 5,3 6,5 4 2 5 3 NW 1027,2 3,0 0 0,0
12.01.2018 20:00:00 5,0 3,8 4,9 5,1 5,4 6,5 4 2 9 5 N 1027,1 2,8 0 0,0
12.01.2018 19:00:00 5,0 3,8 4,9 5,1 5,4 6,4 5 3 8 4 NW 1026,9 3,0 0 0,0
12.01.2018 18:00:00 5,0 3,9 4,8 5,2 5,4 6,4 4 2 5 3 NNW 1027,0 2,5 0 0,0
12.01.2018 17:00:00 5,0 3,6 4,8 5,3 5,4 6,4 4 2 5 3 NNW 1026,9 2,4 0 0,0
12.01.2018 16:00:00 5,1 3,7 5,0 5,5 5,4 6,4 2 1 5 3 N 1026,7 2,6 0 0,0
12.01.2018 15:00:00 4,9 3,5 5,2 5,5 5,3 6,4 3 1 8 4 N 1026,5 2,4 0 0,0
12.01.2018 14:00:00 4,7 3,5 5,1 5,4 5,2 6,4 4 2 8 4 N 1026,5 2,2 0 0,0
12.01.2018 13:00:00 4,6 3,5 4,9 5,3 5,2 6,4 4 2 9 5 NW 1026,7 2,4 0 0,0
12.01.2018 12:00:00 4,4 3,3 4,7 5,1 5,1 6,4 5 3 8 4 W 1027,0 2,4 0 0,0
12.01.2018 11:00:00 4,3 3,5 4,6 4,9 5,1 6,4 4 2 9 5 W 1027,0 2,0 0 0,0
12.01.2018 10:00:00 4,2 3,6 4,2 4,7 5,0 6,4 5 3 9 5 WSW 1026,3 0,9 0 0,0
12.01.2018 09:00:00 4,1 3,5 4,0 4,6 5,0 6,4 5 3 5 3 WNW 1025,9 0,7 0 0,0
12.01.2018 08:00:00 3,9 3,5 4,0 4,5 5,1 6,4 4 2 8 4 NNE 1025,4 0,8 0 0,0
12.01.2018 07:00:00 3,8 3,4 3,9 4,5 5,1 6,4 4 2 8 4 N 1025,0 0,7 0 0,0
12.01.2018 06:00:00 3,8 3,3 3,8 4,4 5,1 6,4 5 3 11 6 NW 1024,9 0,7 0 0,0

tt = Température de l'air
td = dewpoint
tt 5cm = Température de l'air 5cm
tt -5cm = Température de l'air -5cm
tt -20cm = Température de l'air -20cm
tt -100cm = Température de l'air -100cm
ff = Vitesse du vent
fx = gusts
dd = Direction du vent
ppp = reduced air pressure
vv = visibility
sd = Ensoleillement
rr = Quantités de précipitations

stations d'obs. à proximité